Regional Weather Roundup
Issued by NWS

Home | Current Version | Previous Version | Text Only | Print | Product List | Glossary Off
Versions: 1 2 3 4 5 6 7 8 9 10 11 12 13 14 15 16 17 18 19 20 21 22 23 24 25 26 27 28 29 30 31 32 33 34 35 36 37 38 39 40 41 42 43 44 45 46 47 48 49 50

000
ASUS43 KOAX 181302
RWRNE

WEATHER ROUNDUP FOR NEBRASKA
NATIONAL WEATHER SERVICE OMAHA NE
700 AM CST THU DEC 18 2014

NOTES: SATELLITE DATA IS BEING USED TO AUGMENT CLOUD COVER ABOVE
       12000 FEET.
       "FAIR" INDICATES FEW OR NO CLOUDS BELOW 12,000 FEET WITH NO
       SIGNIFICANT WEATHER AND/OR OBSTRUCTIONS TO VISIBILITY.

  * THESE STATIONS DO NOT REPORT WEATHER SUCH AS RAIN...SNOW OR FOG.

NEZ001>004-019>022-054>056-181400-
NEBRASKA PANHANDLE

CITY           SKY/WX    TMP DP  RH WIND       PRES   REMARKS
SCOTTSBLUFF    FOG        8   5  87 NW7       30.03R VSB 1/2 WCI  -3
ALLIANCE       PTCLDY    -1  -6  79 W7        30.00S WCI -14
CHADRON        PTCLDY     3  -1  83 SW7       30.03R WCI  -9
SIDNEY         PTCLDY     5   1  83 CALM      30.00R
$$

NEZ057>060-069>072-079>082-181400-
SOUTHWEST NEBRASKA

CITY           SKY/WX    TMP DP  RH WIND       PRES   REMARKS
NORTH PLATTE   CLOUDY    24  22  91 SW7       30.09R WCI  16
IMPERIAL       CLOUDY    25  23  92 W5        30.06R WCI  19
MCCOOK         CLOUDY    23  21  92 CALM      30.11R
$$

NEZ005>010-023>029-035>040-094-181400-
NORTH CENTRAL NEBRASKA

CITY           SKY/WX    TMP DP  RH WIND       PRES   REMARKS
VALENTINE      CLOUDY    25  21  85 CALM      30.06R
BROKEN BOW     CLOUDY    24  23  96 S5        30.10S FOG     WCI  18
ORD            CLOUDY    23  20  88 SE6       30.13R WCI  16
$$

NEZ041-046>049-061>064-073>077-083>087-181400-
SOUTH CENTRAL NEBRASKA

CITY           SKY/WX    TMP DP  RH WIND       PRES   REMARKS
GRAND ISLAND   CLOUDY    23  21  92 SE3       30.17S
HASTINGS       CLOUDY    24  21  88 SE7       30.15R WCI  16
KEARNEY *      CLOUDY    25  21  86 E7        30.13S WCI  17
$$

NEZ011>018-030>034-042>045-181400-
NORTHEAST NEBRASKA

CITY           SKY/WX    TMP DP  RH WIND       PRES   REMARKS
NORFOLK        CLOUDY    25  22  88 CALM      30.19R
COLUMBUS *     CLOUDY    25  18  74 CALM      30.21R
TEKAMAH        CLOUDY    26  21  81 E3        30.24R
$$

NEZ050>053-065>068-078-088>093-181400-
SOUTHEAST NEBRASKA

CITY           SKY/WX    TMP DP  RH WIND       PRES   REMARKS
LINCOLN        LGT SNOW  26  24  92 CALM      30.22S FOG
OMAHA EPPLEY   FLURRIES  27  22  81 SE5       30.25R WCI  22
FALLS CITY     LGT SNOW  27  25  92 NE5       30.22S FOG     WCI  22
$$

NEZ044-045-051>053-067-181400-
OMAHA AREA

CITY           SKY/WX    TMP DP  RH WIND       PRES   REMARKS
OMAHA EPPLEY   FLURRIES  27  22  81 SE5       30.25R WCI  22
OFFUTT AFB     LGT SNOW  27  23  86 E7        30.23R FOG     WCI  19
$$



USA.gov is the U.S. government's official web portal to all federal, state and local government web resources and services.